sat.trackr.live / text

‹ back to catalog

STARLINK-36085

NORAD 67035 · 2025-294F

PAYLOAD ACTIVE UNKNOWN

§ Identity

Operator
Country
US
Launch date
2025-12-11
Launch site
AFETR
Launch vehicle
Mass (kg)
RCS (m²)

Purposes: comms

External: N2YO · Heavens-Above · Gunter

§ Orbital elements

Epoch: 2026-09-20T14:18:37.789344Z

Period
94.27 min
Inclination
43.0006°
Eccentricity
0.0000410
Mean motion
15.27586432 rev/d
Perigee alt
482.7 km
Apogee alt
483.3 km
Semi-major
6,861.2 km
B*
3.6232e-4
RAAN
17.6911°
Arg perigee
211.9075°
Mean anomaly
148.1752°
Rev number
4,460

§ Raw data

STARLINK-360851 67035U 25294F   26263.59627071  .00009724  00000+0  36232-3 0  99992 67035  43.0006  17.6911 0000410 211.9075 148.1752 15.27586432 44606

JSON: /api/v1/satellites/67035 · /tle

For live sub-satellite position, see the globe view (requires WebGL).

§ Visibility from observer

Set your observer location to see the next 7 days of passes ≥ 10°. The values pass through the URL so the page stays shareable.

No JS? Fill the form by hand. The geolocation button needs JavaScript.